STARLINK-1500 (45744 NORAD) Tracking and Keplerian Element Data

This shows tracking and keplerian element data for the satellite.

Feedback or suggestion? Click here.




ElementValue
Catalog45744
NameSTARLINK-1500
Epoch Orbit442
Epoch Day186.50001157
Epoch Year2020
RAAN193.4254
Inclination53.0005
Eccentricity8.12E-05
Argument of Perigee95.2928
Mean Anonmoly127.0966
Mean Motion15.62716447
Decay Rate0.000437
L11 45744U 20038Q 20186.50001157 .00043700 00000-0 48120-3 0 9995
L22 45744 53.0005 193.4254 0000812 95.2928 127.0966 15.62716447 4427

Live tracking and technical data element details for STARLINK-1500 (NORAD 45744). STARLINK-1500 can be tracked NOW for your location showing map with azimuth and elevation plus other details from your city location.

Track the satellite on the map from your city or location and see movement details for azimuth, elevation, latitude, longitude, range, height, and movement on the map or in text.







IsCatalogInMostPopularTable: catalog: 45744, numindb: 4
Update: records affected: 1



GetName: 45744 STARLINK-1500

Hit Count: updated at: Sun, 05 Jul 2020 17:23:16 GMT